DW3901 Weather Reports


time (UTC)temp
C
wind
direction
speed
KPH
gust
KPH
rain 1hr
cm
rain 24hr
cm
rain mn
cm
humidity
%
barometer
mb
20260510090040 17 47 14.5 25.7 0.00 0.00 0.00 90 1011.1
20260510084548 17 17 29.0 38.6 0.00 0.00 0.00 90 1011.9
20260510083038 20 323 12.9 24.1 0.00 0.00 0.00 82 1011.3
20260510081534 20 343 3.2 11.3 0.00 0.00 0.00 84 1009.6
20260510080029 20 215 14.5 32.2 0.00 0.00 0.00 83 1008.8
20260510074527 20 26 22.5 30.6 0.00 0.00 0.00 85 1008.9
20260510073034 22 52 12.9 20.9 0.00 0.00 0.00 91 1007.9
20260510071523 22 78 11.3 19.3 0.00 0.00 0.00 90 1006.9
20260510070022 22 71 16.1 25.7 0.00 0.00 0.00 89 1007.4
20260510064517 22 79 9.7 19.3 0.00 0.00 0.00 87 1008.0
20260510063017 23 15 8.0 14.5 0.00 0.00 0.00 87 1009.3
20260510061516 23 9 12.9 17.7 0.00 0.00 0.00 87 1009.5
20260510060030 23 355 12.9 19.3 0.00 0.00 0.00 87 1009.4
20260510054514 23 9 9.7 16.1 0.00 0.00 0.00 87 1008.7
20260510053007 23 86 12.9 22.5 0.00 0.00 0.00 86 1007.1
20260510051504 23 116 16.1 22.5 0.00 0.00 0.00 85 1006.6
20260510050105 23 103 14.5 20.9 0.00 0.00 0.00 85 1006.5
20260510044600 22 102 12.9 20.9 0.00 0.00 0.00 84 1006.3
20260510043112 22 122 12.9 20.9 0.00 0.00 0.00 81 1005.9
20260510041604 22 103 14.5 22.5 0.00 0.00 0.00 79 1005.9
20260510040107 23 119 12.9 16.1 0.00 0.00 0.00 76 1005.8
20260510034601 23 107 11.3 16.1 0.00 0.00 0.00 75 1006.1
20260510033057 23 111 12.9 17.7 0.00 0.00 0.00 74 1006.2
20260510031604 23 109 11.3 17.7 0.00 0.00 0.00 73 1006.1
20260510030058 23 92 11.3 17.7 0.00 0.00 0.00 71 1006.0
20260510024556 23 96 6.4 12.9 0.00 0.00 0.00 72 1006.0
20260510023054 24 80 6.4 9.7 0.00 0.00 0.00 71 1006.3
20260510021555 24 92 6.4 12.9 0.00 0.00 0.00 70 1006.1
20260510020054 25 76 8.0 11.3 0.00 0.00 0.00 69 1005.9
20260510014557 25 79 6.4 11.3 0.00 0.00 0.00 68 1005.8
20260510013109 25 85 3.2 6.4 0.00 0.00 0.00 67 1005.7
20260510011553 26 77 3.2 8.0 0.00 0.00 0.00 65 1005.5
20260510010051 26 73 4.8 11.3 0.00 0.00 0.00 63 1005.3
20260510004551 27 61 6.4 12.9 0.00 0.00 0.00 62 1005.1
20260510003051 27 94 9.7 14.5 0.00 0.00 0.00 62 1005.0
20260510001554 27 98 11.3 16.1 0.00 0.00 0.00 59 1005.1
20260510000048 27 86 9.7 16.1 0.00 0.00 0.00 58 1005.1
20260509234548 28 97 8.0 16.1 0.00 0.00 0.00 59 1005.4
20260509233048 27 85 6.4 16.1 0.00 0.00 0.00 59 1005.3
20260509231555 28 61 9.7 17.7 0.00 0.00 0.00 58 1005.3
20260509230047 28 33 9.7 16.1 0.00 0.00 0.00 60 1005.3
20260509224547 28 98 4.8 14.5 0.00 0.00 0.00 60 1005.4
20260509223046 28 59 9.7 17.7 0.00 0.00 0.00 59 1005.2
20260509221545 28 94 12.9 20.9 0.00 0.00 0.00 59 1005.2
20260509220046 28 53 11.3 19.3 0.00 0.00 0.00 61 1005.1
20260509214544 28 109 11.3 19.3 0.00 0.00 0.00 62 1005.2
20260509213042 28 30 9.7 20.9 0.00 0.00 0.00 63 1005.3
20260509211547 28 70 9.7 19.3 0.00 0.00 0.00 62 1005.6
20260509210042 27 68 14.5 20.9 0.00 0.00 0.00 65 1005.8
20260509204540 27 76 11.3 22.5 0.00 0.00 0.00 66 1006.0
20260509203039 27 91 11.3 20.9 0.00 0.00 0.00 65 1006.0
20260509201537 27 59 9.7 22.5 0.00 0.00 0.00 68 1006.1
20260509200043 27 101 11.3 20.9 0.00 0.00 0.00 68 1006.2
20260509194537 27 86 12.9 25.7 0.00 0.00 0.00 69 1006.4
20260509193036 27 92 9.7 19.3 0.00 0.00 0.00 68 1006.6
20260509191534 27 44 8.0 22.5 0.00 0.00 0.00 67 1006.6
20260509190033 27 38 8.0 20.9 0.00 0.00 0.00 70 1006.7
20260509184707 27 78 8.0 19.3 0.00 0.00 0.00 69 1006.7
20260509183030 27 360 8.0 17.7 0.00 0.00 0.00 72 1007.0
20260509181529 27 62 8.0 17.7 0.00 0.00 0.00 70 1007.0
20260509180028 27 35 4.8 14.5 0.00 0.00 0.00 71 1007.2
20260509174533 26 37 9.7 16.1 0.00 0.00 0.00 72 1007.3
20260509173025 26 20 8.0 14.5 0.00 0.00 0.00 73 1007.6
20260509171525 26 355 6.4 12.9 0.00 0.00 0.00 72 1007.5
20260509170023 26 346 8.0 17.7 0.00 0.00 0.00 72 1007.6
20260509164521 26 61 6.4 14.5 0.00 0.00 0.00 73 1007.7
20260509163027 26 355 8.0 16.1 0.00 0.00 0.00 74 1007.7
20260509161515 25 26 6.4 14.5 0.00 0.00 0.00 78 1007.6
20260509160013 24 291 3.2 11.3 0.00 0.00 0.00 79 1007.6
20260509154510 24 9 4.8 12.9 0.00 0.00 0.00 77 1007.5
20260509153103 23 9 6.4 16.1 0.00 0.00 0.00 80 1007.5
20260509151558 23 56 6.4 9.7 0.00 0.00 0.00 83 1007.7
20260509150056 22 39 4.8 9.7 0.00 0.00 0.00 84 1007.7
20260509144555 23 331 3.2 16.1 0.00 0.00 0.00 86 1007.7
20260509143054 22 308 3.2 9.7 0.00 0.00 0.00 86 1007.5
20260509141559 22 310 6.4 11.3 0.00 0.00 0.00 87 1007.4
20260509140058 22 340 3.2 8.0 0.00 0.00 0.00 88 1007.4
20260509134543 22 344 0.0 4.8 0.00 0.00 0.00 89 1007.3
20260509133041 22 336 0.0 0.0 0.00 0.00 0.00 92 1007.2
20260509131539 21 52 0.0 0.0 0.00 0.00 0.00 93 1007.3
20260509130039 20 52 1.6 4.8 0.00 0.00 0.00 94 1007.2
20260509124536 20 46 0.0 0.0 0.00 0.00 0.00 95 1007.2
20260509123044 20 46 1.6 6.4 0.00 0.00 0.00 94 1007.1
20260509121531 20 43 3.2 6.4 0.00 0.00 0.00 94 1007.3
20260509120030 19 61 3.2 6.4 0.00 0.00 0.00 94 1007.0
20260509114530 19 37 3.2 6.4 0.00 0.00 0.00 94 1006.9
20260509113036 19 51 3.2 6.4 0.00 0.00 0.00 93 1006.7
20260509111541 19 40 3.2 4.8 0.00 0.00 0.00 93 1006.4
20260509110027 20 40 1.6 3.2 0.00 0.00 0.00 93 1006.3
20260509104529 20 40 3.2 4.8 0.00 0.00 0.00 93 1006.2
20260509103027 20 76 1.6 6.4 0.00 0.00 0.00 93 1006.0
20260509101531 20 140 1.6 6.4 0.00 0.00 0.00 92 1005.7
20260509100031 20 92 1.6 6.4 0.00 0.00 0.00 92 1005.4
20260509094529 20 142 9.7 16.1 0.00 0.00 0.00 92 1005.0
20260509093024 20 97 6.4 14.5 0.00 0.00 0.00 92 1005.5
20260509091523 20 43 6.4 14.5 0.00 0.00 0.00 91 1005.8